Location: Stony Creek
(40.9500°S, 175.8500°E)
Time: 09:02:06
(UTC+00:00)

Meteor 1-28 Rocket - Pass Details

Date: 15 May 2026
Orbit: 419 x 427 km, 97.6° (Epoch: 10 June)

Event Time Altitude Azimuth Distance (km) Brightness Sun altitude
Rises 17:54:12 0° 171° (S) 2,438 6.6 -15.8°
Reaches altitude 10° 17:56:15 10° 173° (S) 1,559 5.6 -15.4°
Maximum altitude 17:59:34 69° 255° (WSW) 470 2.7 -14.8°
Drops below altitude 10° 18:02:49 10° 339° (NNW) 1,527 5.5 -14.2°
Sets 18:04:48 0° 341° (NNW) 2,381 6.5 -13.8°
